COSMOS 1432

Satellite information

Favourite Embed

Satellite Type and Status

PAYLOADIN ORBIT

Key statistics

Satellite COSMOS 1432 at a glance.

Uptime

15625

Days in orbit

Revolutions

≈ 12.5

Per day

Orbit

LEO

Low Earth Orbit

Inclination

74.0

Latest

Satellite identification and parameters

Extended collection of information and parameters for COSMOS 1432.

Object identification

Identified? True

Debris? False

Object name: COSMOS 1432

International designator: 1983-002D

Object number (NORAD): 13764

Object ID (CCSDS): 13764

Country: COMMONWEALTH OF INDEPENDENT STATES (CIS)

Current information (Y/N): Y

RCS size: MEDIUM

Orbital parameters

Period: 115.211 minutes

Inclination: 74.0219 deg

SMA: 7843.117 km

Apoapsis: 1466.58 km

Periapsis: 1463.384 km

RAAN: 282.8432 deg

Eccentricy: 0.00020373

Argument of periapsis: 63.0781 deg

Mean anomaly: 55.0366 deg

Mean motion: 12.49883989 rev/day

Mean motion (dot): 0.00000006 rev/day2

B* drag term: 0.00014348608 1/REarth

Two-line elements (TLE)

Creation date: Oct. 28, 2025, 7:11 p.m.

Reference frame: TEME

Reference center: EARTH

Epoch: Oct. 28, 2025, 10:40 a.m. UTC

TLE line 0: 0 COSMOS 1432

TLE line 1: 1 13764U 83002D 25301.44477796 .00000006 00000-0 14349-3 0 9993

TLE line 2: 2 13764 74.0219 282.8432 0002037 63.0781 55.0366 12.49883989951890

Live tracking on map

Real-time ground track for satellite COSMOS 1432.

In-orbit conjunctions

There are no conjunctions computed for COSMOS 1432, at the moment. Check back to stay up to date, as we update our databases every day.

Go to all conjunctions

Associated space launch

Military communications satellites

COSMOS 1432 was lifted into orbit during the mission ‘Kosmos-3M | Strela-1M 257-264’, on board a Kosmos-3M space rocket.

The launch took place on Jan. 19, 1983, 2:25 a.m. from 132/1 (132L).

For more information about the launch, click the button.

Launch to space Kosmos-3M | Strela-1M 257-264
Kosmos-3M | Strela-1M 257-264

Agency: N/A

Status: Launch Successful

Launch date: Jan. 19, 1983, 2:25 a.m. UTC

Rocket: Kosmos-3M

Launch pad: 132/1 (132L)

Location: Plesetsk Cosmodrome, Russian Federation

...

Latest news about this satellite

There are no fresh news available about this satellite. Check back as we update our databases every day.


Newsletter sign-up

Weekly statistics, charts and insights to help you stay on top of the space industry.